Regional Weather Roundup
Issued by NWS Jackson, KY

Home | Current Version | Previous Version | Text Only | Print | Product List | Glossary On
Versions: 1 2 3 4 5 6 7 8 9 10 11 12 13 14 15 16 17 18 19 20 21 22 23 24 25 26 27 28 29 30 31 32 33 34 35 36 37 38 39 40 41 42 43 44 45 46 47 48 49 50
000
ASUS43 KJKL 200410
RWRJKL

EAST KENTUCKY HOURLY WEATHER ROUNDUP
NATIONAL WEATHER SERVICE JACKSON KY
1100 PM EST MON FEB 19 2018

NOTE: "FAIR" INDICATES FEW OR NO CLOUDS BELOW 12,000 FEET WITH
NO SIGNIFICANT WEATHER AND/OR OBSTRUCTIONS TO VISIBILITY.

* THESE REPORTS ARE NOT UNDER NWS QUALITY CONTROL AND MAY NOT
  REPORT WEATHER SUCH AS PRECIPITATION AND FOG.

KYZ079-080-083-085-087-088-110-112-115-119-120-200500
...EASTERN KENTUCKY...

CITY           SKY/WX    TMP DP  RH WIND       PRES   REMARKS
JACKSON          N/A     63  53  70 SW7       30.21S
LONDON           N/A     65  55  70 S10       30.21S
SOMERSET*        N/A     63  55  77 MISG      30.21S
WILLIAMSBURG*    N/A     63  55  77 S7        30.23S
MIDDLESBORO*   MOCLDY    65  55  69 S8G23     30.27R
HARLAN APT*    CLOUDY    66  50  55 SE7       30.27R
PIKE CO APT*     N/A     64  53  67 S9        30.24S
BIG SANDY APT*   N/A     63  54  71 S7        30.23S
MOREHEAD APT*    N/A     64  54  68 S9G15     30.18F
ASHLAND*         N/A     66  54  65 S7        30.18S
$$

KYZ035-036-041-042-044-050-067-078-099-200500
...CENTRAL KENTUCKY...

CITY           SKY/WX    TMP DP  RH WIND       PRES   REMARKS
MT STERLING*     N/A     63  54  72 SW9       30.18S
FLEMING/MASON*   N/A     60  54  79 S8        30.17S
DANVILLE*        N/A     61  54  77 S10       30.18S
LEXINGTON        N/A     63  55  75 S13       30.15S
FRANKFORT        N/A     64  53  67 S10       30.12R
LOUISVILLE     CLOUDY    68  55  63 S16       30.08S
LEBANON*         N/A     64  55  72 S15       30.14S
GLASGOW*         N/A     64  57  77 S7        30.14F
BOWLING GREEN    N/A     67  56  67 S10G22    30.12S
$$

KYZ091>093-OHZ055-061-077-WVZ005-015-034-035-042-200500
...SOUTHERN OHIO/WEST VIRGINIA...

CITY           SKY/WX    TMP DP  RH WIND       PRES   REMARKS
COVINGTON        N/A     62  56  80 S13       30.08S
COLUMBUS         N/A     62  55  77 S5        30.09S
DAYTON         MOCLDY    64  56  75 S17G26    30.06S
WILMINGTON       N/A     61  55  81 S13       30.10R
HUNTINGTON       N/A     65  52  62 S7        30.19S
CHARLESTON     MOCLDY    65  53  65 S7        30.21R
BECKLEY        MOCLDY    57  52  83 S8        30.31R
BLUEFIELD        N/A     57  49  74 S6        30.34R
LOGAN CO APT*  CLOUDY    66  54  63 S9G17     30.24S
$$

VAZ002-007-008-TNZ017-027-036-066-071-200500
...SOUTHWEST VIRGINIA/EAST TENNESSEE...

CITY           SKY/WX    TMP DP  RH WIND       PRES   REMARKS
WISE*          MOCLDY    61  52  72 S10G17    30.31R
JONESVILLE*      N/A     55  54  94 CALM      30.30S
ABINGDON*        N/A     58  54  85 CALM      30.32R
BRISTOL        MOCLDY    53  53 100 CALM      30.30S
SEVIERVILLE*   CLEAR     55  50  82 CALM      30.27S
KNOXVILLE      CLOUDY    65  54  67 S7        30.26R
LAFOLLETTE*    PTCLDY    66  55  68 SW14G23   30.30R
OAK RIDGE      CLOUDY    59  58  96 CALM      30.28R
CROSSVILLE       N/A     59  55  87 S9        30.26S
NASHVILLE      MOCLDY    67  55  65 S15       30.15S
$$

...KEY TO REMARKS...
VSB - VISIBILITY IN MILES
WCI - WIND CHILL INDEX
HX  - HEAT INDEX

$$



USA.gov is the U.S. government's official web portal to all federal, state and local government web resources and services.